Weather History for Apalachicola, FL

Change the Weather History Date:

Monday, May 6, 2013

  Actual Average Record
Temperature  
Mean Temperature 60 °F 72 °F  
Max Temperature 71 °F 82 °F 92 °F (1949)
Min Temperature 49 °F 62 °F 49 °F (2013)
Degree Days  
Heating Degree Days 5    
Month to date heating degree days 9  
Since 1 July heating degree days 1129  
Cooling Degree Days 0    
Month to date cooling degree days 22  
Year to date cooling degree days 219  
Growing Degree Days 9 (Base 50)    
Moisture  
Dew Point 45 °F    
Average Humidity 62    
Maximum Humidity 80    
Minimum Humidity 44    
Precipitation  
Precipitation 0.00 in 0.08 in 2.74 in (1978)
Month to date precipitation 0.92 0.40  
Year to date precipitation 18.82 17.28  
Sea Level Pressure  
Sea Level Pressure 29.99 in    
Wind  
Wind Speed - (North)    
Max Wind Speed -    
Max Gust Speed -    
Visibility 10 miles    
Events      
T = Trace of Precipitation, MM = Missing Value Source: NWS Daily Summary

Daily Weather History Graph

Daily Weather History Graph

Search for Another Location

Airport:

Trip Planner

Search our weather history database for the weather conditions in past years. The results will help you decide how hot, cold, wet, or windy it might be!

Date:

Astronomy

May. 06, 2013 Rise Set
Actual Time 6:53 AM EDT 8:20 PM EDT
Civil Twilight 6:27 AM EDT 8:46 PM EDT
Nautical Twilight 5:57 AM EDT 9:16 PM EDT
Astronomical Twilight 5:25 AM EDT 9:48 PM EDT
Moon 4:40 AM EDT (5/6) 5:31 PM EDT (5/6)
Length of Visible Light 14h 18m
Length of Day
13h 27m
Waning Crescent, 11% of the Moon is Illuminated
May 6
Waning Crescent
May 9
New
May 18
First Quarter
May 25
Full
May 31
Last Quarter

Hourly Weather History & Observations

Time (EDT) Temp. Dew Point Humidity Pressure Visibility Wind Dir Wind Speed Gust Speed Precip Events Conditions
12:53 AM 57.0 °F 41.0 °F 55% 29.95 in 10.0 mi North - - N/A   Clear
1:53 AM 55.0 °F 41.0 °F 59% 29.96 in 10.0 mi North - - N/A   Clear
2:53 AM 53.1 °F 41.0 °F 64% 29.96 in 10.0 mi North - - N/A   Clear
3:53 AM 51.1 °F 41.0 °F 68% 29.96 in 10.0 mi North - - N/A   Clear
4:53 AM 50.0 °F 41.0 °F 71% 29.97 in 10.0 mi North - - N/A   Clear
5:53 AM 50.0 °F 42.1 °F 74% 29.97 in 10.0 mi North - - N/A   Clear
6:53 AM 48.9 °F 42.1 °F 77% 29.99 in 10.0 mi North - - N/A   Clear
7:53 AM 53.1 °F 44.1 °F 71% 30.01 in 10.0 mi North - - N/A   Clear
8:53 AM 57.9 °F 45.0 °F 62% 30.02 in 10.0 mi North - - N/A   Clear
9:53 AM 62.1 °F 45.0 °F 53% 30.03 in 10.0 mi North - - N/A   Clear
10:53 AM 64.0 °F 43.0 °F 46% 30.04 in 10.0 mi North - - N/A   Clear
11:53 AM 66.9 °F 44.1 °F 44% 30.02 in 10.0 mi North - - N/A   Unknown
1:53 PM 69.1 °F 46.0 °F 44% 30.01 in 10.0 mi North - - N/A   Mostly Cloudy
2:53 PM 69.1 °F 46.0 °F 44% 29.99 in 10.0 mi North - - N/A   Mostly Cloudy
3:53 PM 70.0 °F 46.9 °F 44% 29.97 in 10.0 mi North - - N/A   Scattered Clouds
4:53 PM 69.1 °F 46.0 °F 44% 29.96 in 10.0 mi North - - N/A   Mostly Cloudy
5:53 PM 69.1 °F 48.0 °F 47% 29.95 in 10.0 mi North - - N/A   Mostly Cloudy
6:53 PM 66.9 °F 48.9 °F 52% 29.95 in 10.0 mi North - - N/A   Mostly Cloudy
8:53 PM 64.9 °F 50.0 °F 58% 29.98 in 10.0 mi North - - N/A   Unknown
9:53 PM 64.9 °F 51.1 °F 61% 29.98 in 10.0 mi North - - N/A   Scattered Clouds
10:53 PM 64.9 °F 51.1 °F 61% 30.00 in 10.0 mi North - - N/A   Mostly Cloudy
11:53 PM 64.9 °F 52.0 °F 63% 29.99 in 10.0 mi North - - N/A   Scattered Clouds